TITAN 3C TRANSTAGE DEB, 1646

Orbit data source: Space-Track

TITAN 3C TRANSTAGE DEB, 1646 is space debris in LEO originally from a launch on Fri, 15 Oct 1965 UTC launched from the Air Force Eastern Test Range (AFETR). Debris objects in space refer to the collection of defunct objects orbiting the Earth. Examples of debris include non-operational satellites, rocket bodies, and fragments generated from explosions, collisions, or faulty payload assembly.

Loading next visibility...
Identifier
1646, 1965-082H
Orbit
LEO
Country
Flag of USUS
Related business
Manufacturer
Unknown
Mission
Spacecraft
Bus & Motor
Unknown
Mass
Unknown
Launch date (UTC)
1965-10-15 (60 years ago)
Launch vehicle
Unknown
Launch site
Air Force Eastern Test Range (AFETR)
Object type
Payload
Rocket body
Debris
Shape & HBR
Unknown
Radar Cross Section
1.500 m², Large (>1 m²)

Expand to show TLE details & history
Last TLE update: 1 day ago

TLE from 1 day ago
0 TITAN 3C TRANSTAGE DEB
1 01646U 65082H   25261.00985051  .00001096  00000-0  14838-3 0  9995
2 01646  32.3087 197.5907 0003233 277.2492  82.7792 14.76723881179902
Epoch: 2025-09-18T00:14Z
TLE epoch observation values (Epoch: 2025-09-18T00:14:11.084Z)
Latitude
-0.00004°
Longitude
-163.13315°
Altitude
638.059 km
Speed
7.542 km/s
True Right ascension
13h 10m 21s
True Declination
0° 00' 00"
Sunlit
Object was in daylight at epoch
Visualization orbit readout
Latitude
Unknown
Longitude
Unknown
Altitude
Unknown
Speed
Unknown
Apparent Right ascension
Unknown
Apparent Declination
Unknown
Sunlit
N/A
Visualization observer readout
Local Sidereal Time
16:39:41
Azimuth
Unknown
Elevation
Unknown
Doppler factor
Unknown
Orbital elements
Apogee altitude
645.547 km
Perigee altitude
641.007 km
Semi-major axis
7,021.414 km
Eccentricity
0.00032
Inclination
32.3087°
RAAN
197.5907°
Arg. of periapsis
277.2492°
True anomaly
82.81596°
Mean anomaly
82.7792°
Eccentric anomaly
82.79758°
Mean motion
3.68898 °/min
Orbital period
97.59 mins
BSTAR
0.00014838
Loading maneuver chart data...
Computing Atmospheric mass density...

Documentation

Showing up to 5 results
|